Theta_e
290 290 290 290 290 289 288 288 288 289 290 290 291 291 291 292 292 292 292 292 293 293 293 294 294 294 295 295 295 295 295 295 295 295 295 294 294 294 294 294 293 293 293 293 293 293 293 292 292 292 292 292 292 292 292 292 292 293 293 293 294 294 295 295 296 295 291 291 291 289 289 288 286 286 286 285 286 285 286 286 286 286 286 285 284
288 289 289 290 290 289 289 288 288 288 288 288 289 289 290 291 291 291 291 291 291 292 292 292 293 293 293 294 294 294 294 294 294 294 294 294 294 294 294 293 293 293 293 293 293 292 292 292 292 292 292 292 291 292 292 291 292 292 292 292 293 293 294 294 294 294 291 289 289 289 288 287 286 286 285 285 285 285 285 286 286 286 285 284 283
288 288 288 288 288 288 288 288 288 287 287 287 287 287 288 288 289 290 291 291 291 291 291 291 291 292 292 292 293 293 294 294 294 294 294 293 293 293 293 293 293 293 293 292 292 292 292 292 292 292 292 291 291 291 291 291 291 291 291 291 292 292 293 293 293 293 291 288 288 288 287 287 286 286 285 285 285 285 285 285 285 285 285 284 283
288 288 288 288 288 287 287 287 287 287 286 286 287 287 287 287 287 288 289 290 290 291 291 291 290 291 291 291 291 292 293 293 293 293 293 293 293 293 293 293 292 292 292 292 292 292 292 292 291 291 291 291 291 291 291 291 291 291 290 291 291 291 292 292 292 292 291 289 288 287 287 286 286 285 285 284 284 284 284 285 285 284 284 284 283
288 288 288 288 288 288 287 287 286 286 286 286 286 286 286 286 286 286 287 288 289 289 290 290 290 290 290 290 290 291 291 291 292 292 292 292 292 292 292 292 292 292 292 292 292 292 291 291 291 291 291 291 290 290 290 290 290 290 290 290 290 290 291 291 291 291 291 289 288 287 286 286 285 285 284 284 284 283 283 284 284 284 283 283 282
288 288 288 288 288 288 287 287 287 287 286 285 285 285 285 285 285 285 285 286 287 288 288 289 289 290 290 290 290 290 290 290 290 291 291 291 291 291 291 291 291 291 291 291 291 291 291 291 291 291 291 290 290 290 290 290 289 289 289 289 290 290 290 290 290 290 290 289 288 286 285 285 284 284 284 284 283 283 283 283 283 283 282 281 281
288 288 288 288 288 288 287 287 287 286 286 285 285 285 285 284 285 285 284 285 285 286 286 287 288 288 289 289 290 290 289 289 289 290 290 290 290 290 290 291 290 290 291 290 290 290 290 290 291 290 290 290 290 290 290 289 289 289 289 289 289 289 289 289 289 289 289 289 288 286 285 285 284 284 283 283 283 283 282 282 282 282 282 281 281
287 287 287 287 287 287 287 287 287 286 285 285 285 284 284 284 284 284 284 284 285 284 285 285 286 287 288 288 289 289 289 289 289 289 289 289 289 289 290 290 290 290 290 290 290 290 290 290 290 290 290 290 290 290 289 289 289 288 288 288 288 288 288 288 288 288 288 288 287 286 285 284 284 283 282 282 282 282 282 282 282 282 282 282 281
287 287 287 286 287 287 286 287 287 286 285 285 285 284 284 284 284 284 284 284 284 284 284 284 284 285 286 287 287 288 288 289 289 289 289 289 289 289 289 289 289 289 289 289 290 290 289 289 289 289 289 289 289 289 289 289 288 288 288 288 287 287 288 288 287 287 287 287 287 286 284 284 283 283 282 281 282 282 282 282 282 283 283 282 281
286 286 286 286 286 286 286 286 286 286 285 285 284 283 283 283 284 284 284 284 284 284 284 284 284 285 285 285 286 286 287 288 288 288 289 288 288 288 288 289 289 289 289 289 289 289 289 289 289 289 289 289 289 289 289 288 288 288 288 288 287 287 287 287 287 287 287 287 287 286 284 284 283 283 282 282 282 282 282 282 283 283 283 283 282
286 286 286 286 285 285 285 285 285 285 284 284 284 283 282 283 284 284 284 284 284 284 284 284 284 284 285 285 285 285 285 286 286 287 287 288 288 288 288 288 288 288 288 288 289 289 289 289 288 288 288 288 288 288 288 288 288 288 287 287 287 287 287 287 287 287 287 287 287 286 285 285 284 283 283 282 282 282 282 282 283 283 284 283 283
285 285 285 285 285 284 285 285 284 284 284 283 283 282 282 282 284 285 285 285 284 284 284 284 284 284 284 284 284 285 285 285 285 285 285 286 287 288 288 288 288 288 288 288 288 288 288 288 288 288 288 288 288 287 287 288 287 287 287 287 287 287 287 287 287 287 287 287 287 287 286 286 285 284 283 283 282 282 282 282 282 283 283 283 283
285 285 285 284 284 284 284 284 283 283 283 282 282 281 281 281 282 284 285 285 285 284 284 284 284 284 284 284 284 284 284 284 284 284 284 284 285 287 288 288 288 288 288 288 288 288 288 288 288 288 288 288 288 287 287 287 287 287 287 287 286 286 286 286 286 287 287 287 287 287 287 286 285 284 284 284 283 282 283 283 282 282 283 283 283
285 285 284 284 283 283 283 283 283 283 282 282 281 281 280 280 281 283 284 284 284 283 283 283 283 284 284 284 284 284 284 284 284 283 283 283 283 285 287 288 288 288 288 288 288 288 288 288 288 288 287 287 287 287 287 286 286 286 286 286 286 286 286 286 286 286 286 287 287 287 287 286 286 285 285 284 284 283 283 283 283 283 283 283 283
285 284 284 283 283 283 282 282 282 282 282 281 281 280 280 280 280 281 283 284 283 282 282 282 283 283 283 283 283 283 283 283 283 283 283 283 283 284 286 287 287 288 288 288 288 288 288 288 287 287 287 287 287 287 287 286 286 285 285 286 286 286 286 285 286 286 286 286 286 286 287 287 286 286 285 284 284 284 284 283 283 283 282 282 282
284 284 283 283 283 282 282 282 282 282 281 281 280 280 279 279 279 280 282 282 281 281 281 281 281 281 282 282 282 282 282 283 283 283 283 283 283 284 285 286 286 287 287 288 288 288 288 288 287 287 287 287 287 287 287 286 286 285 285 285 285 285 285 285 285 285 285 285 286 286 286 286 286 285 285 284 284 283 283 283 282 282 282 281 281
284 283 283 282 282 282 282 281 281 281 281 280 279 279 278 278 278 279 280 280 280 279 279 279 279 280 280 281 281 282 282 282 282 283 282 282 283 284 285 285 286 286 287 287 288 288 288 288 288 287 287 287 287 287 286 286 286 285 285 285 285 285 285 285 285 284 284 285 285 285 285 285 285 285 284 284 284 283 283 282 281 281 281 281 280
283 283 282 282 282 281 281 281 281 281 280 279 279 278 278 277 277 278 279 279 278 278 278 278 278 278 279 279 280 281 282 282 282 282 282 282 282 283 284 285 286 286 286 287 287 287 288 288 288 288 287 287 287 287 286 286 286 285 285 284 284 284 284 284 284 284 284 284 284 284 283 283 283 283 283 283 283 283 283 282 281 281 280 281 280
282 281 281 281 281 280 280 280 280 280 279 279 278 277 277 276 276 277 278 277 277 276 276 276 276 277 277 278 279 280 281 281 281 281 281 282 282 283 284 285 285 285 286 286 287 287 287 288 288 288 288 287 287 286 286 286 286 285 285 284 284 284 284 284 284 283 283 283 283 283 282 282 282 283 283 282 282 282 282 282 281 281 280 280 280
280 280 280 279 279 278 278 278 278 278 278 277 276 276 276 275 275 276 276 276 275 275 275 275 275 275 276 277 277 278 278 279 280 281 281 282 282 282 283 284 285 285 285 286 286 286 287 287 287 287 288 287 287 286 286 286 286 285 285 284 284 284 284 284 283 283 283 283 282 282 282 282 282 282 282 282 282 281 281 281 281 281 281 280 279
278 278 278 277 276 276 276 276 276 276 276 275 275 274 274 274 275 275 274 274 273 273 273 273 273 274 274 275 275 276 277 278 279 280 281 281 282 282 283 284 284 284 285 285 286 286 287 287 287 287 287 287 287 287 286 286 286 286 285 284 284 284 284 283 283 282 282 282 282 281 281 281 281 281 282 282 281 281 280 280 280 281 280 280 279
275 275 275 274 274 273 273 273 274 274 274 274 273 273 273 273 273 273 273 272 272 272 272 272 272 272 273 273 274 275 277 278 279 280 280 281 282 282 283 283 283 284 284 285 285 286 286 286 287 287 287 287 287 287 286 286 286 286 285 285 284 284 284 283 283 282 282 282 281 281 281 281 281 281 281 281 281 280 279 279 279 280 280 280 279
272 272 272 271 271 271 271 271 271 271 272 272 272 272 272 272 272 272 271 271 271 271 271 271 272 272 273 273 274 275 276 278 279 280 280 281 281 282 282 282 282 283 284 284 285 285 285 286 286 286 287 286 286 286 286 286 286 286 285 285 285 284 284 283 282 282 281 281 281 281 281 281 281 280 280 280 280 279 278 278 278 278 278 278 278
269 269 268 268 268 268 268 268 268 269 269 270 270 270 270 270 270 270 270 270 270 271 271 271 271 272 272 274 275 275 277 278 279 280 281 281 281 282 282 282 282 283 283 284 284 284 285 285 285 286 286 286 286 286 286 286 285 285 285 285 285 284 284 283 282 282 281 281 281 281 280 280 280 280 279 279 278 278 277 277 277 277 277 277 277
265 265 265 265 265 265 266 266 266 267 267 267 268 268 269 269 269 269 269 270 270 270 270 271 271 271 272 273 274 275 276 277 278 280 281 281 282 282 282 282 283 283 283 284 284 284 284 285 285 286 286 286 285 285 285 285 285 285 285 285 285 285 284 283 282 281 281 281 281 280 280 280 280 279 278 277 277 277 276 276 276 276 276 276 275
263 263 263 263 263 264 264 264 264 265 265 266 266 267 267 268 268 268 268 269 269 269 270 270 271 271 272 273 273 274 275 276 277 279 279 280 281 282 282 282 283 283 284 283 283 283 284 285 286 286 286 285 285 285 285 285 285 285 285 285 285 285 284 283 282 281 281 281 280 280 279 279 279 278 277 276 276 276 275 275 274 274 274 274 273
262 262 262 262 262 262 262 263 263 263 264 264 265 265 266 266 267 267 267 268 268 269 269 269 270 271 271 272 273 273 274 275 276 277 278 279 280 281 282 282 282 283 283 283 283 283 284 284 285 285 286 285 285 285 284 284 284 284 284 284 284 284 284 282 281 281 281 281 280 279 279 278 277 276 276 276 275 274 274 274 273 272 272 273 272
261 261 261 261 261 262 262 262 262 263 263 263 264 264 265 265 265 266 266 266 267 267 268 268 269 269 270 271 271 272 273 274 275 275 277 278 279 280 281 281 281 281 282 282 282 282 283 283 284 285 285 285 284 284 284 283 283 283 283 284 284 284 284 282 281 281 280 280 280 279 277 276 276 275 275 275 274 273 273 273 272 271 271 271 271
261 261 261 261 261 261 262 262 262 262 262 263 263 263 263 263 264 264 264 265 265 266 266 267 267 268 268 269 270 270 271 272 273 274 275 276 277 278 280 280 281 281 281 281 282 282 282 283 283 284 284 284 283 283 283 283 283 283 283 283 283 283 283 282 281 280 280 280 279 277 276 275 275 275 274 274 273 272 272 272 272 271 271 270 270
261 261 261 261 261 261 261 262 262 262 262 262 262 262 263 263 263 264 264 265 265 266 266 267 267 268 268 269 269 270 270 271 272 273 274 275 276 277 279 280 281 281 281 281 282 282 282 282 283 284 284 283 283 282 282 282 282 282 282 282 283 283 283 281 280 280 279 279 278 276 275 275 274 273 273 272 271 271 271 271 271 270 270 269 269
260 260 260 260 260 261 261 261 261 261 262 262 262 262 262 263 263 264 264 265 265 266 267 267 268 269 269 270 270 270 271 272 272 273 274 275 276 277 278 279 280 281 282 282 282 282 282 282 283 283 283 282 282 282 282 282 282 282 282 282 282 283 282 280 280 279 278 278 277 275 274 274 273 273 272 271 270 270 270 270 270 269 269 269 269
260 260 260 260 260 260 260 260 261 261 261 262 262 262 262 262 263 263 264 264 265 266 266 267 267 268 268 269 270 270 271 272 272 273 274 275 276 277 278 278 279 280 281 282 282 282 282 282 282 282 282 282 282 282 282 282 282 282 282 282 282 282 281 280 279 278 278 277 276 275 274 273 273 272 272 271 270 269 269 268 268 269 269 269 269
259 259 259 259 259 260 260 260 261 261 261 262 262 262 262 262 263 263 263 264 264 265 265 266 266 267 267 268 268 269 270 270 271 272 273 274 276 276 277 278 279 280 281 282 283 283 282 282 282 282 282 281 281 282 282 282 282 282 282 282 281 280 279 279 278 277 277 276 275 274 273 272 272 272 271 270 269 269 268 268 268 268 269 269 269
259 259 259 259 259 259 260 260 261 261 261 262 262 262 262 262 263 263 263 263 263 264 264 264 265 266 266 266 267 268 268 269 270 271 272 273 274 275 276 277 279 280 281 282 283 283 283 282 282 282 281 281 281 281 282 282 281 281 281 281 280 279 278 278 277 276 276 275 274 273 272 271 271 270 269 269 269 268 268 268 268 268 268 268 268
259 259 259 259 259 260 260 260 261 261 261 261 262 262 262 262 262 262 263 263 263 263 263 264 264 265 266 266 267 267 268 269 270 271 272 273 274 274 275 277 278 279 281 282 282 283 283 283 282 282 281 281 281 281 281 281 281 281 280 279 278 277 277 276 275 275 274 274 273 272 271 271 270 270 269 269 269 268 268 268 268 268 268 268 268
259 259 259 259 259 260 260 260 260 261 261 261 261 261 262 262 262 262 262 263 263 263 264 264 264 265 265 266 267 268 269 270 271 272 272 273 274 275 275 276 277 279 280 281 282 283 283 283 282 282 281 281 281 281 281 280 280 279 278 277 276 276 275 275 274 273 273 272 272 271 270 270 270 269 269 269 268 268 268 268 268 268 268 268 268
259 259 259 259 259 260 260 260 260 261 261 261 261 262 262 262 262 262 263 263 263 263 264 264 264 265 265 266 267 268 269 269 270 271 272 273 275 276 276 276 277 278 279 281 282 283 283 283 282 282 281 281 281 281 280 280 279 278 277 276 275 275 274 274 273 272 272 271 271 270 270 269 269 269 269 268 268 268 268 268 268 268 268 268 267
259 259 259 260 260 260 260 261 261 261 261 262 262 262 262 262 262 262 263 263 263 263 264 264 265 265 266 266 266 267 268 268 269 270 271 273 276 277 276 276 277 278 279 281 282 283 283 283 282 282 281 281 281 280 279 278 277 276 275 275 274 273 273 273 272 271 271 270 270 269 269 269 268 269 269 268 268 268 268 268 267 267 267 267 267
259 259 260 260 260 261 261 261 262 262 262 262 262 262 262 262 263 263 263 263 263 264 264 264 265 265 265 266 266 266 267 268 269 270 271 273 276 278 278 278 278 279 280 281 282 283 283 282 282 281 281 281 280 279 278 277 276 275 274 273 272 272 272 271 271 270 270 270 269 269 268 268 268 268 268 268 268 268 267 267 267 267 267 267 267
259 259 260 260 260 261 261 261 262 262 262 262 262 263 263 263 263 263 263 263 263 264 264 264 264 265 265 265 266 267 267 268 269 270 271 272 275 277 278 279 279 280 281 282 282 283 282 282 281 281 280 280 279 278 277 276 275 274 273 272 271 271 271 270 270 270 269 269 268 268 268 268 268 268 268 268 268 267 267 267 267 267 267 267 267
259 259 259 260 260 261 261 262 262 262 262 263 263 263 263 263 263 263 263 263 264 264 264 264 264 265 265 266 267 268 269 270 271 272 273 274 275 277 278 278 279 280 281 282 282 282 281 281 280 280 279 278 277 276 275 274 274 273 272 271 271 270 270 269 269 269 268 268 268 267 267 267 268 268 268 267 267 267 267 267 267 267 267 267 267
259 259 260 260 261 261 262 262 263 263 263 263 263 263 263 263 263 264 264 264 264 264 264 265 265 265 266 267 268 269 270 271 272 273 275 275 276 276 277 278 279 279 281 281 281 281 280 280 279 278 278 277 276 275 274 274 273 272 271 270 270 269 269 268 268 268 268 267 267 267 267 267 267 267 267 267 267 267 267 267 266 267 267 267 267
259 259 260 261 261 262 262 263 263 263 264 264 264 264 264 264 264 264 264 264 264 265 265 265 266 266 266 267 269 270 271 272 273 274 274 274 273 274 275 276 277 278 279 280 280 280 280 279 278 277 277 276 276 275 275 274 273 272 271 270 269 269 268 268 268 268 267 267 267 267 267 267 267 267 267 267 267 267 266 266 266 266 266 266 267
259 260 260 261 261 262 262 263 263 263 264 264 265 265 266 266 266 266 265 265 265 265 266 266 266 267 267 268 269 271 271 272 271 271 271 270 270 271 272 273 274 275 276 277 278 278 278 278 276 275 275 274 274 274 274 273 272 271 271 270 269 268 268 268 267 267 267 267 266 267 267 267 266 267 267 266 266 266 266 266 266 266 266 266 266
259 259 260 260 261 261 262 262 263 263 263 264 264 265 266 266 266 266 266 266 266 267 267 267 267 268 268 268 268 268 268 268 268 267 267 267 268 269 269 270 271 272 273 273 274 275 275 275 274 273 273 272 272 272 271 271 271 271 271 270 269 268 268 268 267 267 267 267 267 267 267 267 267 266 266 266 266 266 266 266 266 266 266 266 266
259 259 260 260 261 261 261 262 262 262 263 263 264 264 265 265 265 265 266 266 266 266 266 266 266 266 266 266 265 265 265 265 265 265 265 265 266 267 267 268 269 270 271 271 272 272 272 272 271 271 270 270 270 270 270 270 270 270 270 269 268 268 268 267 267 267 268 269 269 268 267 267 266 266 266 266 266 266 266 266 266 265 266 266 266
258 259 259 260 260 260 261 261 261 262 262 262 263 263 264 264 264 264 264 264 264 265 265 264 264 264 264 264 263 263 263 263 263 263 263 263 264 265 266 267 267 268 268 269 269 269 269 269 269 269 268 269 269 269 269 269 269 269 269 268 268 268 267 267 267 268 269 269 269 268 268 267 266 266 266 266 266 266 266 266 265 265 266 266 266
258 258 258 259 259 260 260 260 260 261 261 261 262 262 262 263 263 263 263 263 263 263 263 263 263 263 262 262 262 261 261 261 261 261 261 262 262 263 264 265 266 266 267 267 267 267 267 267 267 268 268 268 267 267 268 268 268 268 268 267 267 267 267 268 268 269 269 269 269 268 268 267 266 266 266 266 266 266 266 265 265 265 266 265 265
258 258 258 258 259 259 259 260 260 260 260 260 261 261 261 261 262 262 262 262 262 262 262 262 262 261 261 261 260 260 260 260 260 260 260 260 261 262 263 263 264 264 265 264 264 265 265 265 266 266 266 266 266 266 267 267 267 267 267 267 267 268 268 269 269 269 269 269 268 268 268 267 266 266 266 266 266 266 266 265 265 265 265 265 265
257 257 258 258 258 258 258 259 259 259 259 259 260 260 260 260 261 261 261 261 261 261 261 261 261 261 261 261 260 260 259 259 259 259 259 259 260 260 261 262 262 263 262 262 262 263 264 264 265 265 265 266 266 267 267 267 267 268 268 268 268 268 269 269 268 268 268 268 268 267 267 267 266 266 265 266 266 266 266 265 265 265 265 265 265
257 257 257 258 257 257 258 258 258 259 259 259 259 259 259 259 260 260 260 260 260 260 260 260 260 260 260 260 260 260 260 259 259 259 259 259 259 260 260 260 261 261 261 261 262 264 265 265 266 266 267 267 267 267 268 268 268 268 268 268 268 268 268 267 267 267 267 267 267 267 266 266 266 265 265 266 266 266 266 265 265 265 265 265 265
Wind_Speed
16 15 13 13 15 18 19 21 21 20 17 15 14 14 14 14 14 14 13 13 13 12 12 11 12 14 15 16 17 18 20 21 22 23 24 25 26 27 28 29 31 33 34 34 34 35 37 37 38 39 38 37 38 37 37 37 37 36 35 33 32 31 28 24 14 6 8 14 20 24 26 28 30 31 31 32 33 32 32 33 33 31 29 25 23
17 16 15 14 13 14 16 17 18 18 18 18 18 18 17 16 16 16 15 15 14 13 12 11 11 12 14 15 16 17 18 19 20 21 23 24 25 26 27 28 29 31 32 33 34 34 36 38 39 38 36 37 39 38 38 37 37 37 37 34 33 32 31 28 21 12 9 13 19 22 25 27 29 30 31 33 34 33 33 34 33 32 30 27 25
14 14 14 14 14 14 15 15 15 16 17 18 20 21 21 20 19 17 15 15 15 15 15 14 13 13 13 15 16 17 18 18 19 20 22 23 24 26 27 28 30 30 31 32 33 33 35 38 40 38 35 35 38 39 38 38 38 38 38 36 34 33 33 31 27 19 12 15 20 23 25 27 28 28 30 31 31 31 32 33 33 31 30 28 26
12 11 11 11 12 13 15 16 16 17 19 19 19 20 21 22 21 19 17 17 16 15 15 14 14 15 15 16 16 17 18 18 19 20 21 22 24 25 26 28 30 31 32 32 33 33 34 36 38 37 34 35 39 39 38 38 38 38 38 38 37 35 34 33 33 27 17 16 20 24 26 28 26 26 28 27 27 28 29 30 30 30 30 29 27
9 10 10 10 11 12 13 14 16 17 19 20 20 20 21 22 22 20 19 18 17 17 17 16 14 14 15 16 18 18 19 19 19 20 20 21 23 25 26 27 28 30 32 33 33 33 34 36 36 34 33 35 38 38 38 37 36 36 37 37 37 36 34 33 34 33 24 18 20 22 24 26 24 23 27 28 25 25 26 27 28 27 27 27 26
8 9 9 9 10 11 12 13 14 15 17 19 20 21 21 22 23 21 20 19 18 17 18 17 16 14 14 14 16 18 19 20 20 20 21 21 23 24 25 26 27 28 30 32 33 34 36 36 36 34 34 37 39 38 36 36 35 35 37 38 36 35 34 33 33 33 28 22 21 23 23 25 25 23 26 30 29 27 25 24 25 25 23 23 23
7 8 8 8 8 9 10 12 13 14 16 17 19 20 21 22 22 22 22 21 20 20 19 17 16 15 14 14 14 15 16 18 19 21 22 23 24 25 25 26 27 28 29 30 32 33 35 37 37 36 36 38 39 38 36 35 36 37 38 37 35 34 33 33 31 32 30 24 22 24 25 26 26 25 26 28 27 26 25 23 22 23 23 23 24
9 9 8 8 9 9 10 11 12 14 16 16 16 18 20 22 22 22 23 22 21 22 21 19 18 17 15 14 14 14 15 15 16 18 21 22 24 26 28 28 28 28 29 30 31 33 34 35 36 37 38 40 40 38 37 36 36 37 39 37 34 33 33 32 30 30 31 26 22 24 25 24 25 24 24 26 25 24 26 26 25 25 26 26 26
13 12 12 11 11 12 13 13 13 14 16 17 17 19 20 21 21 22 23 21 21 21 21 20 20 18 17 16 15 15 14 15 16 16 18 19 22 25 27 29 30 31 31 30 31 32 33 34 34 35 36 38 40 40 39 38 37 37 38 35 34 34 34 32 30 29 28 26 23 22 22 23 25 25 27 31 32 28 27 27 25 24 25 25 25
17 15 15 15 15 16 16 15 15 16 17 17 18 21 22 22 21 22 22 21 22 22 21 21 20 18 18 18 18 17 16 16 16 16 17 18 21 24 26 28 30 32 33 33 32 32 33 33 34 34 35 37 39 40 40 41 41 42 40 36 35 36 35 33 31 30 28 25 24 24 21 21 27 30 31 34 34 30 28 28 24 22 21 19 20
16 16 16 17 18 18 17 16 17 19 20 19 20 22 23 22 22 23 23 22 22 22 21 22 21 19 19 19 19 19 19 18 17 17 18 19 20 23 26 28 29 31 32 33 33 33 33 34 34 34 35 36 38 39 40 41 43 44 43 40 38 38 38 36 34 32 29 27 27 27 24 24 29 32 31 30 31 29 29 30 27 23 21 18 15
15 16 17 19 21 20 19 19 20 21 21 22 23 24 24 22 22 23 23 23 24 24 24 23 22 22 21 20 21 21 22 22 22 21 21 20 20 22 25 27 28 30 31 32 33 33 32 33 35 34 34 36 36 36 38 41 42 44 44 43 42 42 42 42 39 36 33 31 29 29 30 29 29 32 32 31 31 31 30 30 30 28 24 22 19
17 18 20 22 23 22 21 23 24 24 23 24 25 26 25 25 24 23 22 23 23 23 25 25 25 24 22 22 23 23 23 25 25 25 25 24 22 21 24 26 27 28 30 31 32 32 32 32 32 33 33 34 33 33 35 37 38 40 42 43 44 45 46 46 45 43 40 37 34 35 37 34 31 34 38 37 34 33 30 29 31 31 28 26 25
18 19 20 22 24 23 23 24 27 28 28 29 29 29 28 27 26 24 23 23 23 23 25 25 25 25 25 25 26 26 26 28 29 29 29 28 25 23 23 26 28 28 30 31 31 32 32 32 33 33 32 31 31 33 33 33 33 34 37 40 43 45 46 47 48 47 45 42 40 40 40 38 37 39 40 40 39 38 36 34 34 34 31 27 25
18 18 19 21 22 23 23 24 25 27 29 30 31 32 32 30 30 27 23 23 25 25 26 26 26 27 28 28 28 29 32 34 34 32 30 30 28 25 23 26 27 29 31 31 31 32 32 32 34 35 33 30 31 33 33 31 30 30 33 37 41 43 44 47 50 50 48 46 45 44 40 38 41 41 39 40 41 39 38 37 35 32 27 23 21
19 19 20 22 22 22 23 25 25 26 27 28 30 31 32 32 33 29 25 26 28 28 27 27 28 30 31 29 28 30 34 36 35 33 32 31 29 26 25 26 26 28 30 31 31 32 32 33 34 36 35 34 33 34 33 31 30 30 33 36 38 39 42 46 48 49 50 49 48 46 42 39 40 40 39 39 40 37 33 31 30 29 25 21 19
19 20 22 23 23 24 24 25 25 26 27 28 29 30 31 33 32 29 27 28 30 30 30 30 30 31 32 32 31 31 34 36 35 34 35 34 29 26 26 26 26 28 30 31 30 30 32 33 34 35 36 36 35 34 33 32 32 32 33 35 35 36 41 43 43 45 48 49 47 45 43 39 38 39 39 39 40 39 35 31 31 31 27 18 14
21 22 23 23 24 25 25 26 27 28 29 29 30 31 32 32 33 30 28 28 30 32 31 32 34 33 33 34 34 33 35 38 38 37 38 38 32 28 26 26 26 28 30 30 30 30 32 34 34 35 37 36 35 34 34 34 34 34 34 33 31 35 40 40 35 35 39 42 42 41 40 38 37 37 37 39 41 42 40 37 36 35 29 21 16
22 23 23 23 24 25 26 28 29 29 30 30 30 32 33 33 33 31 27 27 29 31 30 32 36 38 37 37 36 34 36 40 42 40 40 39 35 29 26 25 25 28 29 29 29 30 32 33 34 35 37 36 35 34 35 35 35 36 35 31 30 35 39 35 30 30 32 34 35 36 36 35 35 34 34 36 39 42 43 41 41 39 32 26 22
22 22 22 22 25 27 28 29 31 31 31 32 32 33 32 32 32 30 28 28 29 29 29 31 35 38 39 38 38 38 39 42 45 44 42 40 36 31 27 25 26 29 29 28 28 29 31 31 31 33 35 36 36 36 36 36 36 37 35 33 34 36 33 30 31 33 34 34 35 36 36 36 35 35 35 35 37 40 41 40 41 41 35 30 28
22 21 22 24 28 30 30 31 32 33 33 34 34 34 33 31 31 31 31 32 32 32 33 34 34 37 40 40 41 42 42 42 45 46 45 43 39 34 29 28 30 31 29 27 27 28 29 30 30 31 32 34 36 38 37 37 37 38 38 39 40 36 30 30 34 35 35 36 36 35 36 36 36 37 37 37 37 38 39 39 39 41 38 34 32
22 23 25 29 32 34 34 33 33 33 34 33 33 34 34 33 33 33 32 32 34 35 37 37 36 36 38 40 41 43 44 44 44 46 47 47 43 38 34 33 34 33 29 27 28 29 30 31 31 31 30 32 35 37 36 35 36 38 40 42 41 38 34 35 35 33 34 35 34 33 33 34 35 36 36 36 34 34 36 37 36 37 37 35 34
27 28 31 34 36 37 37 36 35 35 35 34 33 34 35 34 33 32 32 32 33 34 35 35 34 33 34 36 39 43 44 43 43 44 46 47 46 42 39 38 38 36 31 30 31 31 31 32 33 33 31 32 34 34 33 33 35 37 39 38 37 37 37 36 35 33 33 32 31 31 33 33 33 33 34 34 33 32 33 35 35 35 34 31 30
32 32 34 36 37 38 37 36 36 36 36 35 35 35 36 35 33 33 33 32 30 30 30 30 28 28 30 31 34 39 41 40 40 42 43 45 46 45 43 41 40 38 35 33 34 33 33 34 35 32 31 31 33 33 32 33 35 36 36 35 34 34 35 36 36 34 31 30 30 31 32 33 32 32 33 34 33 32 32 33 33 33 32 29 26
32 33 35 35 36 36 36 36 36 36 35 35 35 36 36 36 34 32 31 31 30 29 28 27 26 26 27 27 31 37 39 38 38 38 39 40 41 42 43 41 40 38 36 35 36 38 38 37 34 31 30 32 32 32 32 34 36 36 34 35 36 35 34 34 35 33 31 30 30 29 30 32 32 32 33 35 34 32 31 31 30 30 28 26 23
31 33 34 33 33 34 35 35 35 33 33 33 32 33 33 33 32 31 29 28 29 29 28 27 27 26 26 27 31 35 37 36 37 37 38 39 39 40 41 40 38 38 37 37 39 40 40 37 34 32 32 33 32 32 32 33 34 34 34 35 35 35 33 32 32 32 31 30 29 27 28 30 30 30 33 35 34 33 32 32 30 28 28 27 24
30 32 32 31 32 32 31 31 31 30 30 29 28 28 29 28 29 29 28 26 26 26 26 26 26 25 25 27 29 32 34 34 34 36 37 37 37 37 36 36 36 35 35 36 37 38 37 36 33 32 33 32 32 33 34 32 31 31 32 34 34 34 33 32 33 33 32 31 29 27 27 29 30 31 33 34 32 31 33 33 31 28 28 27 25
29 31 32 30 29 28 28 28 29 29 28 27 27 27 28 27 28 28 28 27 27 28 27 27 27 26 26 28 29 30 32 33 34 35 35 35 34 33 31 31 31 31 32 33 34 34 33 31 29 29 30 30 30 31 31 31 30 30 30 31 32 32 31 31 32 33 32 31 29 27 28 30 31 32 33 31 29 29 31 31 30 28 28 27 24
29 31 30 28 28 27 27 27 27 28 29 29 29 29 29 29 30 32 32 31 31 32 32 32 32 31 30 30 30 28 29 33 35 35 36 37 37 36 35 33 31 30 31 32 31 29 26 25 25 25 26 26 25 26 27 28 28 28 30 30 29 29 29 29 31 31 30 29 28 28 29 30 30 30 31 28 27 28 30 29 28 27 27 26 23
30 29 28 27 27 27 27 27 27 28 29 29 30 31 30 30 32 34 35 34 35 37 38 39 39 37 35 35 34 32 34 37 37 36 36 37 37 37 37 36 34 32 30 29 28 25 22 22 23 24 25 25 21 20 23 26 26 25 27 29 28 27 27 28 30 30 29 29 29 29 30 30 29 30 30 27 25 26 28 28 28 28 28 26 21
29 28 27 27 28 28 28 29 29 29 29 29 29 30 30 30 30 33 35 36 37 38 39 40 41 41 40 40 40 40 42 45 44 42 41 40 38 38 37 37 37 35 32 29 25 22 22 21 18 19 23 24 20 18 21 25 25 23 24 26 28 27 26 26 28 30 30 30 30 30 31 31 31 31 30 28 26 27 27 27 27 27 27 25 22
28 29 28 28 29 29 29 29 29 28 28 28 28 29 29 28 28 29 31 33 35 36 37 38 40 40 41 42 42 41 41 42 43 44 43 41 40 40 40 40 39 38 37 33 26 22 22 20 15 16 19 20 21 23 24 24 25 24 23 23 24 26 27 26 28 31 31 31 30 30 30 31 31 31 31 30 28 27 27 27 28 27 24 22 21
29 30 30 29 28 28 28 28 28 27 27 27 27 27 27 27 26 26 28 30 32 34 35 36 38 39 40 41 42 42 41 42 42 43 42 40 40 39 38 38 39 38 37 35 27 22 23 21 17 18 20 20 22 26 26 24 24 24 24 23 23 24 26 27 29 31 32 32 32 31 30 30 30 30 30 29 28 29 29 28 27 26 23 20 19
29 29 29 29 28 28 28 27 27 27 27 27 27 27 27 27 27 26 27 26 26 28 30 32 34 35 36 37 38 39 39 39 39 39 39 39 40 39 37 36 36 35 35 34 29 24 23 22 20 21 21 21 23 25 24 23 22 22 23 22 22 23 25 28 30 31 31 31 32 31 31 31 31 30 30 28 27 28 29 28 25 24 22 21 20
27 26 28 29 28 27 27 26 26 27 26 26 27 27 27 28 28 27 26 24 23 25 27 29 30 31 33 34 35 37 37 37 36 36 36 36 36 36 35 32 30 28 28 31 31 28 24 21 21 22 22 21 22 23 23 22 22 22 22 22 22 24 27 29 30 31 31 31 32 31 31 32 32 32 31 30 28 28 29 28 25 23 22 21 20
24 25 26 27 26 26 26 26 26 26 26 26 27 27 27 28 27 27 27 26 26 26 27 28 29 31 32 33 33 34 34 34 33 33 34 34 34 32 30 26 23 21 22 24 28 29 26 22 21 22 22 21 22 23 23 22 22 22 24 25 25 27 28 29 30 31 31 30 30 31 31 31 31 31 31 30 29 28 27 26 25 24 23 22 21
24 23 24 24 24 25 26 26 26 27 28 28 28 27 27 27 27 26 26 25 25 26 26 27 28 28 28 29 29 29 30 31 32 33 35 37 34 30 26 22 21 22 23 23 24 26 26 23 20 20 20 21 22 23 22 22 23 23 25 26 27 28 29 30 31 32 31 29 29 30 31 31 31 33 34 32 29 28 27 26 25 23 22 21 20
24 23 23 24 25 26 26 27 27 27 27 27 26 26 26 26 26 25 25 25 25 25 25 25 26 25 25 27 28 28 28 29 29 29 30 31 27 21 21 22 23 25 27 27 25 24 24 22 21 20 20 21 23 23 23 23 24 24 25 25 25 26 27 27 27 28 28 28 28 30 30 30 32 36 37 35 31 29 27 26 25 22 20 19 18
23 23 25 26 26 26 26 27 27 26 25 25 25 25 25 25 24 24 23 23 24 23 23 23 24 24 24 26 27 26 24 23 22 22 24 26 23 17 16 19 21 23 26 26 24 23 22 20 19 20 21 22 24 25 25 25 25 26 27 27 26 25 24 25 26 26 27 27 28 29 30 32 35 37 37 35 32 30 28 26 25 23 21 18 16
23 24 26 26 26 25 25 26 26 25 24 24 24 23 23 23 23 23 23 22 22 22 22 22 23 24 25 26 25 24 21 21 22 22 22 22 23 21 18 16 16 19 22 22 22 21 19 17 17 19 21 22 24 26 26 27 28 29 29 29 28 26 26 27 28 28 28 29 29 29 31 34 37 37 35 33 31 30 29 26 23 21 20 17 15
24 25 26 25 25 25 25 24 24 24 24 24 23 22 22 22 22 22 22 21 21 21 21 21 22 25 27 27 28 27 24 23 24 23 21 19 21 22 18 15 17 21 20 18 18 17 16 16 18 19 20 21 24 26 27 29 31 31 29 28 26 26 26 26 27 28 29 29 30 31 34 37 39 37 34 31 29 29 28 25 22 19 17 16 15
24 24 25 24 24 24 23 23 24 24 24 23 22 21 21 22 22 21 20 20 20 20 20 21 23 25 26 27 29 29 26 24 23 21 19 19 21 19 15 12 13 14 10 12 16 17 18 19 20 22 24 25 26 28 30 31 31 30 28 27 27 26 26 25 26 28 28 29 31 35 38 38 36 33 30 28 29 28 26 24 21 19 17 15 15
24 23 23 24 24 24 24 24 25 25 24 23 22 22 22 21 20 19 19 19 19 19 19 20 21 22 24 26 28 27 24 20 18 17 17 18 18 15 11 7 6 3 4 11 15 17 19 21 23 25 27 29 31 32 33 34 33 31 29 28 27 27 27 26 26 27 27 29 33 37 38 35 32 30 28 28 28 28 26 23 21 18 16 15 14
22 22 22 23 23 23 24 24 24 24 24 24 24 23 23 20 18 16 16 18 19 19 19 20 21 22 22 23 22 20 17 15 13 13 13 13 13 12 10 7 4 4 5 8 12 15 18 20 22 22 22 24 26 28 30 31 31 31 31 30 29 29 29 30 30 31 31 33 36 37 36 34 33 31 29 27 27 26 24 22 20 18 16 16 15
20 20 21 22 22 23 23 23 23 23 23 23 23 22 21 21 19 16 15 15 16 17 17 18 18 18 18 17 16 15 15 15 14 13 12 12 12 12 11 10 8 8 8 9 10 12 15 17 19 19 19 19 21 22 23 24 26 27 29 30 31 32 33 33 34 35 37 39 40 38 37 35 33 31 28 27 26 24 23 21 21 19 18 16 16
19 19 20 20 21 22 22 22 23 23 22 22 21 21 20 20 19 18 17 17 17 17 17 17 16 16 15 15 15 15 15 15 15 15 15 15 14 13 12 11 10 10 11 11 11 12 13 14 16 17 18 18 19 19 20 21 22 23 24 25 27 28 30 31 34 36 38 40 40 39 37 35 32 30 29 28 25 23 22 21 20 19 17 16 15
19 18 18 19 20 21 21 22 22 22 22 21 20 21 20 20 19 18 18 18 17 17 16 17 16 15 15 15 15 15 15 15 15 16 16 16 15 13 12 12 12 12 12 12 12 12 13 14 15 16 18 19 21 21 22 22 22 22 22 22 24 25 27 30 33 35 37 37 37 37 36 34 31 29 28 27 25 23 21 20 18 17 15 14 13
18 18 18 19 19 20 21 21 21 21 22 21 21 21 20 20 19 19 18 18 17 17 17 17 17 16 16 15 15 15 16 16 16 16 16 15 15 14 14 14 14 14 14 14 15 15 15 16 17 18 20 21 22 23 23 23 23 22 22 22 24 26 29 31 32 32 33 33 33 33 33 32 31 29 27 26 25 23 21 18 16 15 13 12 11
19 18 18 18 18 19 20 20 21 21 21 21 21 21 20 20 19 19 19 18 18 17 17 17 17 17 16 15 16 17 17 18 18 18 18 17 16 15 15 15 16 17 18 19 19 19 19 20 20 22 23 23 23 23 23 22 22 22 23 24 26 28 29 30 29 29 29 29 29 29 29 29 28 27 26 24 23 21 19 16 14 13 11 10 9
21 19 18 17 18 18 18 19 19 20 20 20 20 20 20 20 19 19 20 19 19 19 19 19 18 18 17 16 16 17 18 18 18 19 20 20 19 18 19 19 21 22 23 24 24 24 24 25 25 25 26 26 26 26 25 24 24 25 25 26 27 27 27 27 26 26 25 25 25 25 25 25 26 25 24 22 20 18 16 14 12 11 10 9 9
22 21 20 18 18 18 18 19 19 19 20 20 20 19 20 20 20 19 20 19 19 19 19 19 19 19 19 18 18 18 19 20 21 22 23 23 22 23 24 23 24 25 25 26 28 29 29 30 29 28 28 28 28 27 27 26 26 27 26 26 26 25 24 24 24 23 22 22 22 22 22 23 23 23 22 20 18 16 14 12 11 9 8 8 9
Wind_Direction
29 27 22 20 22 24 27 31 33 33 31 28 22 14 7 3 358 352 340 327 317 308 300 294 290 286 281 276 272 268 265 261 258 254 251 251 249 247 246 244 243 242 242 241 240 239 238 238 239 237 236 234 234 235 234 233 232 232 231 230 230 229 225 226 232 204 177 196 197 198 207 204 201 208 208 207 214 215 212 214 219 223 228 233 237
27 25 22 17 12 11 15 18 20 21 24 26 25 23 20 15 8 2 354 344 335 326 318 311 304 296 289 284 278 273 269 265 262 258 254 254 253 250 249 246 244 244 244 242 241 240 239 240 241 240 238 237 235 235 234 233 232 231 231 230 229 229 225 223 228 223 181 179 189 193 199 202 202 207 208 210 214 215 213 215 218 224 229 233 238
21 20 20 19 17 15 14 13 11 12 14 17 18 19 21 21 18 14 4 354 347 340 333 327 321 314 304 295 287 281 275 270 266 262 258 257 256 254 252 248 247 247 247 245 243 241 241 241 241 240 238 238 237 236 235 233 230 230 229 229 228 229 227 223 225 225 199 180 188 190 194 200 203 206 209 211 216 217 215 216 219 225 230 235 239
14 10 7 9 11 13 14 14 13 13 13 13 10 10 12 14 15 15 10 5 1 355 348 339 330 322 315 308 300 291 284 278 274 269 265 262 259 257 255 252 251 250 250 249 248 245 243 243 243 241 237 238 239 238 236 233 230 229 229 228 228 228 227 223 224 225 211 187 190 195 197 199 201 205 206 205 212 217 216 217 220 226 232 237 241
357 355 353 352 357 1 3 6 9 10 12 11 8 7 7 6 8 9 6 4 3 1 1 358 346 329 317 310 303 297 292 286 282 278 273 268 265 263 260 256 254 254 253 253 252 249 246 245 245 243 238 238 240 238 235 234 232 230 230 228 227 226 225 223 222 223 218 198 188 193 198 197 196 201 203 200 202 210 214 216 220 225 233 239 244
338 338 339 337 342 348 351 354 358 359 2 6 6 5 3 2 3 4 3 2 359 356 357 357 353 343 328 315 305 300 296 291 287 284 280 275 272 269 266 262 259 257 256 256 254 252 249 248 248 246 241 239 240 240 238 235 233 232 232 230 228 225 223 222 219 219 219 211 193 187 192 194 192 195 201 201 200 202 206 211 218 225 231 237 243
329 330 333 329 329 335 339 343 347 349 351 355 357 358 358 357 357 357 358 360 357 354 352 348 345 339 331 322 311 304 300 295 290 288 286 283 280 275 271 267 263 260 259 259 257 255 252 251 251 249 245 243 243 243 241 238 236 235 234 232 229 225 222 221 217 214 216 214 199 191 191 193 194 195 197 199 201 204 204 204 212 221 228 234 239
329 327 326 325 324 325 327 328 332 339 343 345 346 348 350 350 350 350 351 353 351 351 351 346 340 334 328 321 311 304 299 295 292 290 288 286 284 281 277 273 269 266 263 261 259 257 255 254 253 251 248 247 246 245 242 239 237 237 236 234 230 227 224 220 216 212 212 210 203 195 190 189 192 193 190 190 194 202 205 206 210 216 224 232 234
334 331 328 328 325 324 324 323 323 327 332 335 337 340 342 342 342 342 343 343 343 343 343 341 338 334 329 323 316 310 299 293 294 294 291 287 282 279 277 275 273 271 270 267 263 259 258 257 255 253 252 251 250 247 245 242 239 238 237 233 229 226 223 220 216 212 211 210 205 196 188 188 189 185 185 191 196 200 202 204 211 217 221 227 231
332 329 327 328 327 326 323 321 320 322 324 326 327 331 335 335 333 333 333 333 334 335 333 332 331 327 324 322 320 317 310 302 300 297 293 289 283 278 274 272 270 270 270 271 269 265 263 260 257 257 257 255 252 249 247 244 242 240 238 234 229 225 221 219 218 214 212 211 208 198 192 196 196 192 193 198 200 199 196 196 202 206 206 214 227
324 321 321 322 323 325 322 319 319 319 319 319 319 323 329 328 325 324 324 323 325 327 325 324 323 320 318 318 318 316 314 311 308 304 300 294 285 278 273 270 268 267 267 268 268 268 266 264 263 262 260 257 254 251 248 245 244 243 241 238 233 229 224 220 218 216 212 214 214 207 204 205 202 200 200 198 196 196 196 195 196 192 187 193 208
311 311 313 315 317 319 318 316 315 315 314 314 314 317 322 322 320 317 314 314 316 318 319 317 316 316 314 313 313 312 311 312 312 310 308 303 292 280 274 270 267 264 264 265 266 266 266 265 266 265 262 259 256 253 249 247 244 242 242 239 236 234 230 226 223 219 214 215 217 215 214 212 206 202 200 196 193 196 198 199 198 195 193 197 201
298 301 303 306 309 311 311 311 311 309 308 308 310 313 315 316 317 312 307 306 306 308 311 311 310 311 310 308 308 307 306 309 311 310 309 307 302 289 277 270 267 264 263 263 264 264 265 266 266 265 262 260 257 254 250 247 244 242 240 239 238 236 234 232 230 226 222 219 219 220 220 215 208 206 205 200 196 194 194 196 198 199 200 204 206
290 293 295 298 300 301 303 305 305 304 305 306 308 310 310 311 313 310 303 300 300 300 302 303 303 303 303 304 305 303 302 305 309 309 308 309 308 298 283 275 270 267 265 263 262 262 263 263 264 264 263 258 255 253 251 247 244 241 238 236 236 236 235 234 233 231 228 225 224 226 225 220 215 215 212 206 202 198 195 195 196 198 200 203 204
285 287 289 292 293 295 297 297 296 296 299 301 303 305 306 307 309 308 301 295 295 297 298 298 297 296 297 299 299 297 298 302 306 307 308 309 309 302 289 280 274 270 268 267 264 263 262 261 262 263 262 258 255 254 251 246 243 240 237 235 234 234 234 234 233 231 230 229 229 231 230 226 223 220 214 208 206 205 203 201 199 195 191 188 187
284 286 289 290 289 290 291 292 290 288 290 294 296 297 298 300 302 303 298 292 293 294 293 293 294 294 294 294 292 291 292 296 299 301 304 306 304 297 288 283 278 274 272 270 267 265 263 261 260 261 260 258 257 255 250 246 242 238 237 237 235 234 234 234 234 233 231 232 232 233 233 230 226 221 216 209 207 205 202 199 195 187 178 173 176
284 287 290 291 291 289 289 289 287 284 284 287 287 289 291 293 294 295 291 288 290 291 290 291 291 291 291 291 289 287 287 289 291 293 297 299 296 290 285 281 277 276 275 273 270 268 265 262 259 259 260 259 257 254 249 244 240 236 235 235 235 236 237 236 235 235 234 234 234 233 232 230 225 221 218 212 208 203 194 188 187 182 177 177 185
288 291 291 290 290 290 288 288 286 282 281 282 283 286 287 287 289 290 285 281 284 287 287 289 289 288 287 287 286 284 283 285 287 287 290 292 291 285 280 277 274 274 274 274 272 269 267 265 260 259 260 260 257 254 249 243 238 235 235 234 233 236 238 236 233 232 233 233 234 233 230 228 224 220 217 214 210 205 200 196 190 183 182 190 189
296 297 293 290 291 292 291 290 287 283 281 281 283 285 285 285 286 285 278 275 280 283 283 284 286 286 285 284 283 281 280 282 284 284 283 285 286 281 275 271 270 271 271 271 272 270 269 267 263 260 261 261 258 253 248 241 236 235 235 233 233 236 238 234 227 224 224 224 225 226 225 224 221 217 214 212 210 208 208 204 195 187 187 192 183
302 299 294 292 293 294 293 291 288 285 284 285 286 286 284 283 283 281 275 274 278 279 278 279 281 282 282 281 281 280 279 280 282 282 280 279 279 276 270 265 264 267 269 269 269 270 270 268 266 263 261 260 256 251 246 239 235 236 235 231 233 237 235 229 224 221 219 218 219 219 219 218 216 213 210 207 206 207 207 205 201 196 192 188 183
305 301 297 295 295 295 294 291 289 287 286 287 287 285 282 280 279 278 276 276 278 278 277 277 278 278 279 279 279 279 277 276 277 278 278 276 273 269 263 260 261 263 265 266 264 266 267 267 266 265 261 258 254 250 244 236 232 234 234 232 235 237 231 224 222 220 217 217 216 215 214 212 210 209 206 203 201 201 200 201 204 202 197 192 188
307 302 297 295 295 295 294 292 291 289 287 286 285 283 281 280 278 278 276 276 277 277 276 276 275 276 277 277 278 277 275 274 274 274 275 274 270 266 260 260 262 261 259 261 261 260 262 263 264 264 260 256 253 246 238 232 229 232 236 236 237 236 230 225 221 216 214 213 211 209 208 206 205 204 203 200 197 195 193 195 199 200 200 200 197
307 300 297 297 296 297 296 294 292 290 288 287 285 282 282 280 278 276 275 275 275 275 275 273 271 272 274 275 276 276 275 274 272 271 271 271 269 267 262 260 262 259 255 255 258 259 261 262 263 263 258 254 251 244 235 230 231 233 235 236 235 232 229 225 219 213 211 209 207 206 205 202 201 200 197 193 188 185 186 190 193 195 197 199 199
308 302 300 301 300 300 299 297 295 293 290 289 286 282 281 280 276 273 270 269 269 269 269 269 267 268 270 270 272 274 274 273 272 270 270 269 269 267 264 260 259 257 254 254 257 259 260 261 262 262 255 250 249 245 237 232 233 234 234 234 233 228 223 220 216 213 209 206 205 205 203 199 198 195 189 184 180 179 181 185 189 192 192 191 193
309 305 304 304 303 303 302 299 297 295 292 290 287 283 282 281 277 272 268 264 262 261 262 262 261 263 264 264 268 273 274 274 273 271 270 269 268 266 263 260 257 253 252 253 257 258 259 259 260 260 256 252 249 244 238 234 234 233 233 233 231 225 219 216 213 209 206 205 205 204 201 198 195 191 184 180 179 178 177 177 178 182 184 185 186
307 304 304 303 303 304 302 299 298 297 294 291 287 283 282 281 277 274 271 267 263 261 260 258 258 260 260 261 265 270 272 272 272 271 271 270 268 266 264 261 257 253 251 253 257 259 258 257 257 256 254 250 244 239 238 237 235 233 233 233 230 224 218 213 209 206 206 206 202 200 199 196 191 185 180 177 178 177 174 170 168 171 177 180 179
301 301 302 301 301 301 299 296 296 297 295 293 288 285 283 281 278 276 275 273 272 269 266 264 262 261 261 263 266 269 269 269 269 269 269 269 269 267 265 263 259 254 250 250 253 254 255 256 255 254 251 246 242 239 238 236 233 230 229 230 230 226 219 213 209 207 207 204 199 196 193 188 182 179 178 177 177 175 173 171 167 166 173 176 174
298 298 299 298 297 297 295 293 294 294 293 292 289 287 285 282 279 276 275 276 277 276 274 271 268 266 267 268 269 269 267 265 264 265 265 266 268 270 268 266 262 254 249 248 250 251 253 254 254 251 246 240 236 234 233 231 228 225 223 223 226 227 222 214 209 208 206 201 195 188 182 179 176 177 177 176 175 174 174 173 170 168 171 172 171
299 298 298 296 295 295 294 292 292 292 291 290 286 283 281 280 279 277 276 275 274 273 273 272 270 270 270 269 268 268 267 265 265 265 265 264 265 266 265 265 265 259 252 249 248 248 248 247 246 242 236 229 225 224 225 224 222 220 219 218 220 223 220 210 204 203 200 194 186 179 174 173 173 174 174 173 173 174 174 172 171 169 170 171 172
300 299 298 297 295 296 295 293 292 290 289 289 287 285 283 280 278 279 279 278 276 274 274 274 274 273 271 268 266 265 266 268 270 269 267 266 266 264 263 262 263 261 255 249 244 240 238 238 237 230 223 220 216 214 216 218 217 216 215 213 214 217 214 207 201 198 192 186 181 175 172 171 171 172 172 170 169 170 172 173 172 170 170 171 172
300 299 298 296 295 296 295 293 291 289 288 287 288 289 288 285 282 280 281 282 281 279 278 278 278 278 276 275 273 270 268 270 270 270 268 268 267 266 265 264 262 260 258 251 242 235 234 236 231 220 216 214 209 202 205 212 215 213 210 209 210 211 209 203 197 192 185 181 179 176 173 173 173 173 172 169 165 165 168 171 171 170 172 174 173
297 297 296 295 295 294 292 290 290 289 288 288 287 288 289 290 288 285 283 284 284 283 283 282 282 282 281 281 281 281 279 277 275 273 271 269 267 264 262 261 259 258 257 252 243 233 231 233 226 214 212 212 209 206 207 212 215 212 207 205 205 205 202 196 190 186 182 179 177 176 175 176 175 173 172 169 164 162 164 167 169 169 171 174 176
294 294 293 293 293 292 290 289 289 288 288 288 288 288 288 289 290 291 290 288 286 285 285 284 284 284 284 283 284 286 286 285 283 280 278 276 274 272 268 264 260 256 253 250 244 232 227 227 224 220 218 214 211 211 212 215 215 211 207 204 199 195 192 188 183 182 180 178 178 177 177 177 175 172 170 168 164 162 163 166 168 169 169 170 172
293 290 289 290 290 290 288 287 287 287 287 287 288 288 288 288 289 292 293 292 291 289 286 285 285 285 285 285 284 285 285 285 285 284 281 279 278 277 277 275 269 260 252 246 240 231 225 222 222 225 225 220 214 213 214 215 213 207 203 200 191 183 179 178 177 177 176 177 178 177 176 176 173 170 167 166 164 162 163 165 166 167 169 169 169
291 288 288 288 288 287 287 286 286 287 287 286 286 287 287 287 288 289 290 291 292 291 289 289 288 287 287 286 285 285 285 284 284 284 282 278 275 273 272 273 272 266 256 248 239 232 225 221 222 226 226 220 214 213 213 212 207 199 192 185 176 172 172 171 173 175 175 175 176 175 174 174 174 171 168 166 164 163 164 165 166 166 168 169 168
291 289 290 289 287 287 287 287 286 285 285 285 285 286 285 285 285 286 286 287 288 288 289 289 290 290 290 289 287 288 289 288 288 287 285 282 276 266 258 257 261 263 260 253 241 231 225 223 223 223 221 216 212 212 211 207 200 193 186 178 172 170 170 170 171 173 174 174 173 172 171 171 171 170 167 165 164 164 164 165 166 167 167 168 168
292 290 289 288 287 287 286 286 285 284 284 284 284 285 284 283 283 284 285 285 286 287 288 289 291 292 292 291 292 293 295 296 297 297 295 291 281 261 246 245 255 259 259 256 245 231 224 223 223 220 215 209 207 207 204 198 191 186 181 177 174 172 171 172 173 173 172 171 170 169 168 168 169 169 167 163 162 162 162 163 164 166 168 168 167
294 291 290 290 290 290 288 287 286 285 285 285 284 284 284 283 282 283 283 283 284 285 286 288 290 291 292 294 296 298 299 300 300 299 299 298 286 256 233 235 244 250 252 252 242 228 220 220 220 215 208 202 201 199 193 186 180 176 173 170 170 170 170 170 170 170 169 167 166 166 166 166 167 169 167 163 160 160 161 163 163 162 164 166 167
299 297 296 296 296 293 290 289 288 287 286 285 283 282 281 281 282 282 281 282 283 283 284 286 288 288 289 292 296 299 299 300 298 296 299 303 299 278 253 246 248 253 254 247 232 220 216 215 209 204 202 200 195 189 183 176 171 168 167 166 166 167 166 165 164 164 164 163 163 164 165 164 165 166 165 162 160 160 161 163 165 164 164 167 170
303 302 300 300 298 295 292 290 287 285 283 281 280 280 279 278 278 279 279 280 281 281 282 283 283 285 287 288 291 294 293 291 291 290 290 295 299 296 286 278 280 279 264 240 221 214 212 201 192 193 196 192 185 179 174 170 166 165 167 169 169 168 167 167 166 165 164 163 162 162 162 162 162 162 162 161 162 163 163 163 165 166 166 168 169
304 303 302 302 300 297 295 292 287 285 282 280 279 278 277 276 275 274 274 276 277 279 280 280 279 283 286 286 287 289 289 287 287 285 282 286 295 296 290 288 296 291 267 229 202 193 186 175 174 179 180 176 173 169 166 165 166 167 169 170 168 167 166 167 167 165 163 161 161 160 160 161 162 161 160 160 161 162 163 162 162 163 163 165 165
307 304 303 304 303 301 299 296 294 293 291 285 281 278 276 277 277 275 273 273 274 276 278 279 280 283 286 288 291 291 288 284 283 285 290 297 304 304 297 295 303 298 258 196 173 167 164 162 166 170 170 169 168 166 166 168 169 169 168 167 166 165 164 164 165 164 162 162 161 159 159 160 161 160 158 158 160 161 161 161 161 161 161 163 166
309 307 307 307 307 306 304 302 301 301 299 297 294 290 286 282 278 274 274 275 275 276 277 278 281 283 285 290 294 294 290 288 291 299 307 310 313 318 319 313 312 309 175 167 168 170 169 166 168 172 174 175 174 174 175 175 172 168 166 165 165 164 162 161 162 162 161 159 158 157 156 157 157 157 156 158 160 160 158 158 159 161 163 167 170
312 311 311 310 310 309 308 308 308 306 306 306 305 304 303 301 293 283 277 276 277 279 278 278 282 286 288 293 301 307 309 313 318 324 328 331 336 347 359 11 28 65 109 141 158 165 166 165 165 167 169 172 174 175 175 174 173 171 169 166 164 163 164 164 164 163 161 157 156 156 156 156 156 157 158 159 160 159 158 158 160 161 163 168 172
315 314 314 315 314 314 313 314 314 313 313 314 314 314 317 319 317 313 308 302 299 300 299 299 302 306 310 317 327 334 337 339 342 346 355 4 8 12 20 33 47 63 80 98 121 138 147 152 155 156 158 163 166 167 167 169 170 169 169 169 168 168 170 170 169 167 164 161 159 158 158 158 157 158 159 159 160 161 161 162 164 164 164 169 175
318 318 318 317 317 318 317 318 319 319 320 320 321 321 323 325 328 330 331 330 330 329 328 329 332 335 338 342 346 348 349 351 353 356 4 15 23 27 32 42 57 72 83 92 105 119 129 137 144 145 145 147 148 149 151 156 159 161 164 167 168 169 171 171 169 166 165 164 162 160 159 158 158 159 161 162 163 165 165 166 168 168 168 171 176
323 324 322 321 321 320 320 321 322 323 324 324 325 325 326 328 331 333 336 338 340 341 340 341 342 344 346 349 351 352 355 358 359 0 6 16 27 36 45 54 65 75 82 88 96 104 112 120 128 131 132 134 137 137 140 145 151 157 162 165 168 170 171 169 166 165 164 164 163 162 161 159 159 160 163 165 165 166 167 168 169 171 172 173 177
333 329 326 326 326 323 323 325 326 326 328 328 328 328 330 332 334 337 340 342 345 348 349 348 348 349 351 354 356 360 5 10 13 16 21 27 38 50 61 71 78 84 88 92 96 102 108 113 119 124 128 132 136 138 141 146 151 156 159 163 166 167 164 162 161 161 162 163 164 163 163 162 162 162 164 166 167 169 170 168 170 175 176 177 181
344 336 331 330 330 328 328 329 328 328 329 330 329 331 334 336 338 342 344 345 348 352 352 351 351 352 353 355 359 6 14 21 26 32 37 42 48 56 67 79 87 91 93 96 99 103 108 113 118 122 125 128 131 134 137 141 146 150 151 151 152 153 153 154 156 159 162 164 166 165 165 164 163 164 166 167 169 170 171 170 172 175 176 178 186
355 348 341 334 332 333 333 333 332 332 333 333 333 334 337 339 341 345 347 348 351 355 356 356 357 359 0 2 3 7 14 22 30 38 45 49 54 63 72 81 88 91 93 94 97 100 104 109 114 117 119 122 124 126 127 129 132 135 136 137 140 144 148 151 154 158 161 163 165 166 166 165 164 164 167 169 169 170 171 172 173 175 176 182 194
1 358 353 346 340 338 337 337 338 338 338 339 340 341 341 342 344 346 349 353 356 357 358 1 4 7 10 15 18 22 30 38 44 49 53 57 63 69 72 75 80 85 87 89 94 98 102 106 109 112 114 115 117 119 121 124 126 128 130 133 137 141 145 149 152 155 158 161 162 164 165 165 165 165 166 169 171 172 174 175 176 178 183 194 206